Regional Weather Roundup
Issued by NWS Cleveland, OH

Home | Current Version | Previous Version | Graphics & Text | Print | Product List | Glossary On
Versions: 1 2 3 4 5 6 7 8 9 10 11 12 13 14 15 16 17 18 19 20 21 22 23 24 25 26 27 28 29 30 31 32 33 34 35 36 37 38 39 40 41 42 43 44 45 46 47 48 49 50
000
ASUS41 KCLE 302010
RWRCLE
OHIO REGIONAL WEATHER ROUNDUP
NATIONAL WEATHER SERVICE WILMINGTON, OH
400 PM EDT MON MAY 30 2016

NOTE: "FAIR" INDICATES FEW OR NO CLOUDS BELOW 12,000 FEET WITH NO
SIGNIFICANT WEATHER AND/OR OBSTRUCTIONS TO VISIBILITY.

OHZ001>008-015>018-024>027-034-035-043-044-302100-
   NORTHWEST OHIO

CITY           SKY/WX    TMP DP  RH WIND       PRES   REMARKS
DEFIANCE       FAIR      87  53  31 NW13      29.98F
FINDLAY        FAIR      86  49  27 W9        29.98F
TOLEDO EXPRESS PTSUNNY   86  50  28 NW9       29.97F
TOLEDO EXEC    PTSUNNY   87  51  28 NW12      29.98F
LIMA           FAIR      84  52  33 NW7       30.00F
$$

OHZ009>014-019>023-028>033-038-089-302100-
   NORTHEAST OHIO

CITY           SKY/WX    TMP DP  RH WIND       PRES   REMARKS
CLE-HOPKINS    FAIR      83  54  36 N12       30.02F
CLE-LAKEFRONT  FAIR      76  62  62 N3        30.00F
CUY CO. ARPT   MOSUNNY   79  59  50 NW14      30.02F
LORAIN-ELYRIA  FAIR      81  54  39 N10       30.00F
ASHTABULA      FAIR      79  56  45 NW9G16    30.01F
AKRON-CANTON   FAIR      82  56  40 N10       30.01F
WOOSTER        FAIR      83  55  38 N12       30.01F
MANSFIELD      FAIR      81  57  43 VRB7      30.02F
YOUNGSTOWN     PTSUNNY   82  55  39 NW15      30.00F
$$

OHZ042-051>053-060>062-070>072-077>081-302100-
  SOUTHWEST OHIO

CITY           SKY/WX    TMP DP  RH WIND       PRES   REMARKS
CINC-COVINGTON FAIR      86  56  35 NW13      30.02F
CINC-LUNKEN    FAIR      85  57  38 N12       30.01F
HAMILTON       FAIR      87  55  33 CALM      30.02F
DAYTON         FAIR      85  55  35 N6        30.03F
WRIGHT-PAT AFB MOSUNNY   84  55  36 VRB5      30.01F
DAYTON GENERAL FAIR      85  52  32 N10       30.02F
WILMINGTON     FAIR      83  57  41 VRB5      30.02F
$$

OHZ036-037-039>041-045>050-054>059-063>069-073>076-082>088-302100-
  CENTRAL AND SOUTHEAST OHIO

CITY           SKY/WX    TMP DP  RH WIND       PRES   REMARKS
COLUMBUS       FAIR      84  58  40 NE7       29.99F
OSU AIRPORT    FAIR      84  58  40 N7        30.00F
BOLTON FIELD   PTSUNNY  N/A N/A N/A N5        30.01F
RICKENBACK AFB FAIR      83  57  40 NW8       29.99F
NEWARK         FAIR      86  56  35 NW8       30.00S
MARION         FAIR      84  52  33 W10       30.01F
LANCASTER      FAIR      85  57  38 N7        30.01F
ZANESVILLE     PTSUNNY   83  58  42 N5        30.00F
NEW PHILLY     PTSUNNY   85  55  35 NW7       30.00F
$$




USA.gov is the U.S. government's official web portal to all federal, state and local government web resources and services.